AirNav   ATP
 
 482 users online  

10NE St Joseph Hospital Heliport
Omaha, Nebraska, USA

GOING TO OMAHA?


FAA INFORMATION EFFECTIVE 29 MARCH 2018

Location

FAA Identifier: 10NE
Lat/Long: 41-15-55.9940N / 095-57-16.0520W
41-15.933233N / 095-57.267533W
41.2655539 / -95.9544589
(estimated)
Elevation: 1130 ft. / 344 m (estimated)
Variation: 06E (1985)
Time zone: UTC -5 (UTC -6 during Standard Time)
Zip code: 68131

Heliport Operations

Heliport use: Private use, MEDICAL.
Activation date: 05/1979
Control tower: no
ARTCC: MINNEAPOLIS CENTER
FSS: COLUMBUS FLIGHT SERVICE STATION
Attendance: UNATNDD
Wind indicator: yes
Segmented circle: no
Beacon: white-green-yellow (heliport)
Operates sunset to sunrise.

Heliport Communications

UNICOM: 123.05
WX ASOS at OMA (4 nm NE): PHONE 402-271-7515
WX AWOS-3 at MLE (8 nm SW): 118.25 (402-895-6778)
WX AWOS-3 at CBF (9 nm E): 126.575 (712-323-1542)
WX AWOS-3 at BTA (11 nm NW): 120.225 (402-426-0448)
WX AWOS-3 at PMV (19 nm S): 118.975 (402-298-7524)

Nearby radio navigation aids

VOR radial/distance  VOR name  Freq  Var
OVRr293/11.5OMAHA VORTAC116.3008E
SCBr118/36.5SCRIBNER VOR/DME111.0006E

 
NDB name  Hdg/Dist  Freq  Var  ID
RIKKY289/6.742605EEN . -.
PLATTSMOUTH349/19.432905EPMV .--. -- ...-
WAHOO081/29.140006EAHQ .- .... --.-
SHENANDOAH316/39.541105ESDA ... -.. .-
NEBRASKA CITY349/39.834705EAFK .- ..-. -.-

Heliport Services

Fuel available: A
Airframe service: NONE
Powerplant service: NONE
Bottled oxygen: NONE
Bulk oxygen: NONE

Runway Information

Helipad H1

Dimensions: 67 x 60 ft. / 20 x 18 m
Surface: concrete
Runway edge lights: PERIMETER LGTS.
Latitude: 41-15.933233N
Longitude: 095-57.267533W
Elevation: 1130.0 ft.
Traffic pattern: leftleft

Heliport Ownership and Management from official FAA records

Ownership: Privately-owned
Owner: SAINT JOSEPH HOSPITAL
601 N. 30TH ST
OMAHA, NE 68131
Phone 402-449-4588
Manager: THERESA GREGG
601 N 30TH ST
OMAHA, NE 68131
Phone 402-449-4789

Heliport Operational Statistics

Aircraft based on the field: 1
Helicopters: 1
    

Additional Remarks

A30A-H1 TFC PATTERN 270 DEG CLOCKWISE TO 090 DEG.

Instrument Procedures

There are no published instrument procedures at 10NE.

Some nearby airports with instrument procedures:

KOMA - Eppley Airfield (4 nm NE)
KMLE - Millard Airport (8 nm SW)
KCBF - Council Bluffs Municipal Airport (9 nm E)
KOFF - Offutt Air Force Base (9 nm S)
KBTA - Blair Municipal Airport (11 nm NW)
KPMV - Plattsmouth Municipal Airport (19 nm S)
 
Loc | Ops | Rwys | IFR | FBO | Links
Com | Nav | Svcs | Stats | Notes

Silverhawk Aviation, Inc.
AirBoss

 
Area around 10NE (St Joseph Hospital Heliport)
 
Road maps at: MapQuest Bing Google
 
Aerial photo
No photo
 
Sectional chart

 
Airport distance calculator
Flying to St Joseph Hospital Heliport? Find the distance to fly.

From to 10NE

Sunrise and sunset
Times for 20-Apr-2018
 Local
(UTC-5)
 Zulu
(UTC)
Morning civil twilight06:0911:09
Sunrise06:3811:38
Sunset20:0801:08
Evening civil twilight20:3701:37

Current date and time
Zulu (UTC)  20-Apr-2018 05:39:01
Local (UTC-5)  20-Apr-2018 00:39:01
 
METAR
KOMA 
4nm NE 
200452Z 10006KT 10SM CLR 07/M03 A3041 RMK AO2 SLP302 T00721033
KMLE 
8nm SW 
200515Z AUTO 00000KT 10SM CLR 08/M02 A3041 RMK AO2 T00751022
KCBF 
8nm E 
200515Z AUTO 09006KT 10SM CLR 05/M02 A3041 RMK AO2
KOFF 
9nm S 
200456Z AUTO 07006KT 10SM CLR 05/M04 A3040 RMK AO2 SLP305 T00501038 $
KBTA 
11nm NW 
200515Z AUTO 08008KT 10SM CLR 05/M02 A3040 RMK AO2 T00511020
KPMV 
19nm S 
200515Z AUTO 09006KT 7SM CLR 06/M03 A3041 RMK AO2 T00581027
TAF
KOMA 
4nm NE 
191721Z 1918/2018 VRB05KT P6SM FEW250 FM200100 10007KT P6SM SCT250 FM201200 13010KT P6SM FEW250
KOFF 
9nm S 
200200Z 2002/2108 09009KT 9999 SCT250 QNH3032INS BECMG 2014/2015 16012G18KT 9999 FEW120 SCT250 QNH3034INS BECMG 2023/2024 09006KT 9999 SCT120 SCT250 QNH3029INS TX15/2020Z TNM02/2011Z
NOTAMs
Click for the latest NOTAMs
NOTAMs are issued by the DoD/FAA and will open in a separate window not controlled by AirNav.

 

 
 

Would you like to see your business listed on this page?

 If your business provides an interesting product or service to pilots, flight crews, aircraft, or users of the St Joseph Hospital Heliport, you should consider listing it here.  To start the listing process, click on the button below
 
Add a business
 

Other Pages about St Joseph Hospital Heliport

Update a link
 
Copyright © AirNav, LLC. All rights reserved. Privacy Policy  Contact